Zurück zum Katalog

HORUS 1

AktivWissenschaftSSO
NORAD 55690·PAYLOAD·🇪🇬 Egypt

Gestartet Feb 24, 2023 von Jiuquan Satellite Launch Center

Loading…

Nächste Überflüge (nächste 24 Stunden)

TLE

AktuellSource: Space-Track

Epoche: Sep 14, 2026, 13:11 UTC

1 55690U 23025A   26257.54950422  .00004349  00000-0  18551-3 0  9993
2 55690  97.3389 330.2290 0001684 127.2548 232.8843 15.23432591197656

Verfolge HORUS 1 in Echtzeit mit AllMySat

Download on the App Store